User: anonymous   Login
Location: Unspecified
(0.0000°N, 0.0000°E)
Time: 15:18:11
(UTC+00:00)
Language:

USA 207 - Orbit

View from above orbital plane
View from above orbital plane
View from above satellite
View from above satellite

Ground track
Ground track

The orbit data is extracted from the following two-line orbital elements,

1 35815U 09047A   15054.51919998 0.00000000  00000-0  00000-0 0    01
2 35815   0.0515  27.6510 0003453 292.2024  67.7660  1.00270000    04
Epoch (UTC): 23 February 2015 12:27:38
Eccentricity: 0.0003453
inclination: 0.0515°
perigee height: 35772 km
apogee height: 35801 km
right ascension of ascending node: 27.6510°
argument of perigee: 292.2024°
revolutions per day: 1.00270000
mean anomaly at epoch: 67.7660°
orbit number at epoch: 0

The dashed part of the orbit path shows where the satellite is in the earth's shadow,  

DLR